AVA557 MROC-MGGT

Flight info

Callsign AVA557
Flight time 1h 12m
Altitude 36000
Route NANJO3U ULAPO DCT TUKOR DCT AUR
Aircraft A339/H-V/N

Departure

Time 2026-05-07 16:50
Airport Juan Santamaría International Airport (MROC)

Arrival

Time 2026-05-07 18:02
Airport La Aurora International Airport (MGGT)
Time Latitude Longitude Altitude Speed Heading
2026-05-07 16:25 9.99830 -84.20158 3051 ft 0 kts 340°
2026-05-07 16:39 9.99825 -84.20155 3051 ft 2 kts 340°
2026-05-07 16:39 9.99810 -84.20150 3051 ft 2 kts 340°
2026-05-07 16:40 9.99796 -84.20145 3050 ft 2 kts 340°
2026-05-07 16:40 9.99785 -84.20141 3050 ft 2 kts 340°
2026-05-07 16:40 9.99773 -84.20132 3050 ft 2 kts 286°
2026-05-07 16:40 9.99773 -84.20120 3050 ft 0 kts 248°
2026-05-07 16:41 9.99775 -84.20115 3050 ft 0 kts 249°
2026-05-07 16:41 9.99774 -84.20115 3050 ft 0 kts 249°
2026-05-07 16:41 9.99774 -84.20116 3050 ft 0 kts 249°
2026-05-07 16:44 9.99737 -84.20219 3045 ft 16 kts 250°
2026-05-07 16:44 9.99693 -84.20337 3039 ft 15 kts 249°
2026-05-07 16:44 9.99653 -84.20445 3033 ft 16 kts 249°
2026-05-07 16:45 9.99611 -84.20558 3027 ft 16 kts 249°
2026-05-07 16:45 9.99567 -84.20673 3021 ft 17 kts 249°
2026-05-07 16:45 9.99520 -84.20798 3014 ft 18 kts 249°
2026-05-07 16:45 9.99473 -84.20924 3008 ft 18 kts 249°
2026-05-07 16:46 9.99425 -84.21050 3001 ft 19 kts 249°
2026-05-07 16:46 9.99376 -84.21182 2995 ft 19 kts 249°
2026-05-07 16:46 9.99328 -84.21308 2987 ft 13 kts 249°
2026-05-07 16:46 9.99292 -84.21407 2982 ft 14 kts 249°
2026-05-07 16:47 9.99253 -84.21508 2977 ft 15 kts 249°
2026-05-07 16:47 9.99211 -84.21620 2969 ft 17 kts 250°
2026-05-07 16:47 9.99166 -84.21743 2962 ft 17 kts 249°
2026-05-07 16:47 9.99122 -84.21862 2956 ft 18 kts 249°
2026-05-07 16:48 9.99096 -84.21990 2949 ft 18 kts 276°
2026-05-07 16:48 9.99085 -84.22117 2943 ft 8 kts 250°
2026-05-07 16:48 9.99069 -84.22162 2941 ft 6 kts 250°
2026-05-07 16:48 9.99050 -84.22191 2940 ft 3 kts 222°
2026-05-07 16:49 9.99035 -84.22200 2941 ft 2 kts 204°
2026-05-07 16:49 9.99021 -84.22204 2941 ft 0 kts 187°
2026-05-07 16:49 9.98941 -84.22168 2945 ft 16 kts 122°
2026-05-07 16:49 9.98987 -84.21951 2957 ft 66 kts 69°
2026-05-07 16:50 9.99265 -84.21221 2996 ft 146 kts 70°
2026-05-07 16:50 9.99676 -84.20115 3407 ft 179 kts 70°
2026-05-07 16:50 10.00228 -84.18867 3830 ft 197 kts 55°
2026-05-07 16:50 10.01456 -84.18137 4342 ft 209 kts 13°
2026-05-07 16:51 10.02856 -84.18366 5154 ft 203 kts 336°
2026-05-07 16:51 10.03866 -84.19402 5761 ft 207 kts 304°
2026-05-07 16:51 10.04787 -84.20561 6395 ft 204 kts 314°
2026-05-07 16:51 10.05637 -84.21766 6905 ft 213 kts 293°
2026-05-07 16:52 10.06132 -84.23244 7529 ft 215 kts 291°
2026-05-07 16:52 10.06653 -84.24709 8085 ft 220 kts 292°
2026-05-07 16:52 10.07218 -84.26261 8570 ft 233 kts 292°
2026-05-07 16:52 10.07797 -84.27837 9327 ft 233 kts 291°
2026-05-07 16:53 10.08384 -84.29428 10039 ft 236 kts 291°
2026-05-07 16:53 10.08977 -84.31029 10723 ft 240 kts 291°
2026-05-07 16:53 10.09590 -84.32693 11406 ft 246 kts 291°
2026-05-07 16:53 10.10241 -84.34444 11891 ft 271 kts 293°
2026-05-07 16:54 10.11390 -84.36076 12540 ft 286 kts 323°
2026-05-07 16:54 10.13026 -84.37324 13575 ft 288 kts 324°
2026-05-07 16:54 10.14681 -84.38631 14533 ft 293 kts 325°
2026-05-07 16:54 10.16347 -84.39950 15523 ft 298 kts 324°
2026-05-07 16:55 10.18043 -84.41301 16417 ft 304 kts 325°
2026-05-07 16:55 10.19775 -84.42677 17346 ft 309 kts 325°
2026-05-07 16:55 10.21550 -84.44093 18214 ft 315 kts 325°
2026-05-07 16:55 10.23330 -84.45510 19084 ft 319 kts 326°
2026-05-07 16:56 10.25133 -84.46942 19959 ft 322 kts 326°
2026-05-07 16:56 10.26973 -84.48408 20585 ft 335 kts 326°
2026-05-07 16:56 10.30848 -84.51491 21768 ft 358 kts 326°
2026-05-07 16:57 10.32930 -84.53146 22038 ft 380 kts 326°
2026-05-07 16:57 10.35163 -84.54923 22279 ft 401 kts 326°
2026-05-07 16:57 10.37479 -84.56762 22879 ft 409 kts 326°
2026-05-07 16:57 10.39775 -84.58593 23661 ft 411 kts 326°
2026-05-07 16:58 10.42116 -84.60458 24410 ft 415 kts 325°
2026-05-07 16:58 10.44472 -84.62333 25124 ft 419 kts 325°
2026-05-07 16:58 10.46852 -84.64230 25829 ft 423 kts 325°
2026-05-07 16:58 10.49230 -84.66125 26518 ft 426 kts 324°
2026-05-07 16:59 10.51666 -84.68070 27226 ft 430 kts 324°
2026-05-07 16:59 10.54093 -84.70005 27930 ft 433 kts 324°
2026-05-07 16:59 10.56552 -84.71964 28628 ft 436 kts 324°
2026-05-07 16:59 10.59002 -84.73923 29321 ft 439 kts 324°
2026-05-07 17:00 10.61490 -84.75907 30017 ft 442 kts 324°
2026-05-07 17:00 10.64001 -84.77911 30758 ft 444 kts 324°
2026-05-07 17:00 10.66539 -84.79938 31430 ft 447 kts 324°
2026-05-07 17:00 10.68973 -84.82065 32050 ft 451 kts 317°
2026-05-07 17:01 10.71317 -84.84380 32675 ft 454 kts 318°
2026-05-07 17:01 10.73641 -84.86669 33337 ft 458 kts 318°
2026-05-07 17:01 10.76027 -84.89006 33961 ft 461 kts 318°
2026-05-07 17:01 10.78416 -84.91348 34596 ft 464 kts 317°
2026-05-07 17:02 10.80804 -84.93690 35230 ft 466 kts 317°
2026-05-07 17:02 10.83202 -84.96042 35812 ft 468 kts 317°
2026-05-07 17:02 10.85628 -84.98423 35984 ft 473 kts 317°
2026-05-07 17:02 10.88085 -85.00837 35911 ft 470 kts 317°
2026-05-07 17:03 10.92899 -85.05563 35942 ft 468 kts 317°
2026-05-07 17:03 10.97735 -85.10312 35941 ft 468 kts 317°
2026-05-07 17:04 11.02576 -85.15070 35931 ft 470 kts 317°
2026-05-07 17:04 11.06908 -85.20213 35949 ft 472 kts 307°
2026-05-07 17:05 11.10813 -85.25787 35935 ft 472 kts 307°
2026-05-07 17:05 11.14741 -85.31399 35941 ft 472 kts 307°
2026-05-07 17:06 11.18657 -85.37001 35939 ft 472 kts 307°
2026-05-07 17:06 11.22581 -85.42612 35929 ft 472 kts 307°
2026-05-07 17:07 11.26459 -85.48163 35925 ft 473 kts 307°
2026-05-07 17:07 11.30363 -85.53751 35928 ft 472 kts 307°
2026-05-07 17:08 11.34267 -85.59342 35931 ft 472 kts 307°
2026-05-07 17:08 11.38172 -85.64941 35929 ft 472 kts 307°
2026-05-07 17:09 11.42093 -85.70564 35931 ft 472 kts 307°
2026-05-07 17:09 11.45985 -85.76148 35924 ft 472 kts 307°
2026-05-07 17:10 11.49903 -85.81774 35920 ft 474 kts 307°
2026-05-07 17:10 11.53829 -85.87416 35929 ft 473 kts 307°
2026-05-07 17:11 11.57723 -85.93013 35933 ft 472 kts 307°
2026-05-07 17:11 11.61616 -85.98608 35936 ft 473 kts 307°
2026-05-07 17:12 11.65515 -86.04224 35926 ft 473 kts 307°
2026-05-07 17:12 11.69435 -86.09866 35924 ft 474 kts 307°
2026-05-07 17:13 11.73355 -86.15512 35931 ft 473 kts 307°
2026-05-07 17:13 11.77244 -86.21118 35941 ft 472 kts 307°
2026-05-07 17:14 11.81124 -86.26715 35965 ft 473 kts 307°
2026-05-07 17:14 11.85017 -86.32330 35963 ft 473 kts 307°
2026-05-07 17:15 11.88886 -86.37914 35956 ft 471 kts 307°
2026-05-07 17:15 11.92790 -86.43556 35951 ft 473 kts 307°
2026-05-07 17:16 11.96667 -86.49159 35932 ft 473 kts 307°
2026-05-07 17:16 12.00550 -86.54777 35926 ft 472 kts 307°
2026-05-07 17:17 12.04435 -86.60397 35926 ft 472 kts 307°
2026-05-07 17:17 12.08320 -86.66021 35920 ft 471 kts 306°
2026-05-07 17:18 12.12184 -86.71626 35917 ft 471 kts 306°
2026-05-07 17:18 12.16072 -86.77259 35912 ft 471 kts 306°
2026-05-07 17:19 12.19940 -86.82869 35907 ft 471 kts 306°
2026-05-07 17:19 12.23821 -86.88504 35903 ft 470 kts 306°
2026-05-07 17:20 12.27668 -86.94089 35901 ft 471 kts 306°
2026-05-07 17:20 12.31549 -86.99728 35902 ft 471 kts 306°
2026-05-07 17:21 12.35413 -87.05343 35902 ft 471 kts 306°
2026-05-07 17:21 12.39298 -87.10997 35900 ft 471 kts 306°
2026-05-07 17:22 12.43153 -87.16612 35904 ft 470 kts 306°
2026-05-07 17:22 12.47023 -87.22245 35907 ft 470 kts 306°
2026-05-07 17:23 12.50823 -87.27783 35906 ft 470 kts 306°
2026-05-07 17:23 12.54683 -87.33412 35911 ft 470 kts 306°
2026-05-07 17:24 12.58580 -87.39101 35913 ft 477 kts 306°
2026-05-07 17:24 12.62481 -87.44795 35911 ft 479 kts 306°
2026-05-07 17:25 12.66400 -87.50521 35904 ft 478 kts 306°
2026-05-07 17:25 12.70318 -87.56247 35899 ft 478 kts 306°
2026-05-07 17:26 12.74235 -87.61980 35896 ft 478 kts 306°
2026-05-07 17:26 12.78184 -87.67755 35901 ft 487 kts 306°
2026-05-07 17:27 12.82190 -87.73624 35901 ft 486 kts 306°
2026-05-07 17:27 12.86130 -87.79401 35900 ft 486 kts 306°
2026-05-07 17:28 12.89868 -87.85397 35904 ft 486 kts 301°
2026-05-07 17:28 12.93425 -87.91554 35901 ft 485 kts 301°
2026-05-07 17:29 12.96939 -87.97621 35902 ft 485 kts 301°
2026-05-07 17:29 13.00471 -88.03723 35902 ft 486 kts 301°
2026-05-07 17:30 13.04027 -88.09869 35918 ft 487 kts 301°
2026-05-07 17:30 13.07560 -88.15981 35928 ft 486 kts 301°
2026-05-07 17:31 13.11115 -88.22134 35950 ft 485 kts 301°
2026-05-07 17:31 13.14639 -88.28236 35968 ft 485 kts 301°
2026-05-07 17:32 13.18150 -88.34318 35977 ft 486 kts 302°
2026-05-07 17:32 13.21715 -88.40503 35973 ft 486 kts 301°
2026-05-07 17:33 13.25246 -88.46629 35953 ft 487 kts 301°
2026-05-07 17:33 13.28763 -88.52737 35959 ft 487 kts 301°
2026-05-07 17:34 13.32276 -88.58843 35978 ft 487 kts 301°
2026-05-07 17:34 13.35805 -88.64980 35976 ft 486 kts 301°
2026-05-07 17:35 13.39335 -88.71125 35964 ft 487 kts 301°
2026-05-07 17:35 13.42852 -88.77251 35936 ft 487 kts 301°
2026-05-07 17:36 13.46368 -88.83375 35939 ft 487 kts 301°
2026-05-07 17:36 13.49874 -88.89490 35933 ft 487 kts 301°
2026-05-07 17:37 13.53399 -88.95642 35946 ft 487 kts 301°
2026-05-07 17:37 13.56907 -89.01770 35975 ft 487 kts 301°
2026-05-07 17:38 13.60438 -89.07942 36003 ft 487 kts 301°
2026-05-07 17:38 13.63944 -89.14072 36043 ft 487 kts 301°
2026-05-07 17:39 13.67436 -89.20185 36083 ft 486 kts 301°
2026-05-07 17:39 13.70940 -89.26324 35959 ft 490 kts 301°
2026-05-07 17:40 13.72714 -89.29438 35281 ft 490 kts 301°
2026-05-07 17:40 13.74460 -89.32496 34689 ft 484 kts 301°
2026-05-07 17:40 13.76186 -89.35526 34122 ft 482 kts 301°
2026-05-07 17:40 13.77918 -89.38563 33552 ft 480 kts 301°
2026-05-07 17:41 13.79609 -89.41534 32984 ft 479 kts 301°
2026-05-07 17:41 13.81336 -89.44565 32435 ft 477 kts 301°
2026-05-07 17:41 13.83044 -89.47565 31912 ft 476 kts 301°
2026-05-07 17:41 13.84756 -89.50571 31388 ft 474 kts 301°
2026-05-07 17:42 13.86434 -89.53519 30870 ft 471 kts 301°
2026-05-07 17:42 13.88125 -89.56492 30348 ft 469 kts 301°
2026-05-07 17:42 13.89819 -89.59472 29822 ft 467 kts 301°
2026-05-07 17:42 13.91482 -89.62399 29305 ft 465 kts 301°
2026-05-07 17:43 13.93145 -89.65327 28658 ft 451 kts 301°
2026-05-07 17:43 13.94731 -89.68121 28064 ft 434 kts 301°
2026-05-07 17:43 13.96286 -89.70860 27486 ft 429 kts 301°
2026-05-07 17:43 13.97850 -89.73616 26853 ft 425 kts 301°
2026-05-07 17:44 13.99365 -89.76286 26241 ft 421 kts 301°
2026-05-07 17:44 14.00882 -89.78960 25621 ft 418 kts 301°
2026-05-07 17:44 14.02392 -89.81623 25005 ft 414 kts 301°
2026-05-07 17:44 14.03862 -89.84219 24398 ft 411 kts 301°
2026-05-07 17:45 14.05339 -89.86820 23788 ft 408 kts 302°
2026-05-07 17:45 14.06904 -89.89366 23172 ft 404 kts 304°
2026-05-07 17:45 14.08453 -89.91885 22564 ft 401 kts 304°
2026-05-07 17:45 14.09984 -89.94373 21970 ft 399 kts 304°
2026-05-07 17:46 14.11499 -89.96835 21395 ft 396 kts 304°
2026-05-07 17:46 14.13013 -89.99305 20811 ft 394 kts 304°
2026-05-07 17:46 14.14515 -90.01749 20232 ft 391 kts 303°
2026-05-07 17:46 14.16025 -90.04211 19651 ft 388 kts 304°
2026-05-07 17:47 14.17515 -90.06641 19062 ft 385 kts 303°
2026-05-07 17:47 14.18987 -90.09043 18491 ft 383 kts 303°
2026-05-07 17:47 14.20585 -90.11328 18042 ft 372 kts 317°
2026-05-07 17:47 14.22731 -90.12774 18090 ft 346 kts 341°
2026-05-07 17:48 14.25145 -90.13248 18125 ft 337 kts
2026-05-07 17:48 14.27539 -90.12970 18124 ft 334 kts 11°
2026-05-07 17:48 14.29909 -90.12716 18107 ft 334 kts
2026-05-07 17:48 14.32340 -90.12557 18145 ft 335 kts
2026-05-07 17:49 14.34770 -90.12511 18138 ft 336 kts
2026-05-07 17:49 14.37136 -90.12578 18147 ft 325 kts
2026-05-07 17:49 14.39445 -90.12754 18153 ft 310 kts 358°
2026-05-07 17:49 14.41611 -90.13023 18164 ft 300 kts 355°
2026-05-07 17:50 14.43723 -90.13378 18196 ft 297 kts 353°
2026-05-07 17:50 14.45828 -90.13833 17830 ft 301 kts 350°
2026-05-07 17:50 14.47913 -90.14389 17414 ft 304 kts 347°
2026-05-07 17:50 14.50017 -90.15063 17014 ft 306 kts 344°
2026-05-07 17:51 14.52084 -90.15844 16589 ft 308 kts 341°
2026-05-07 17:51 14.54137 -90.16747 16158 ft 309 kts 338°
2026-05-07 17:51 14.56137 -90.17759 15736 ft 311 kts 335°
2026-05-07 17:51 14.58083 -90.18887 15314 ft 311 kts 331°
2026-05-07 17:52 14.59959 -90.20126 14782 ft 305 kts 327°
2026-05-07 17:52 14.61696 -90.21433 14316 ft 293 kts 324°
2026-05-07 17:52 14.63308 -90.22804 13847 ft 284 kts 321°
2026-05-07 17:52 14.64779 -90.24210 13377 ft 277 kts 317°
2026-05-07 17:53 14.66144 -90.25683 12906 ft 271 kts 314°
2026-05-07 17:53 14.67486 -90.27059 12452 ft 260 kts 327°
2026-05-07 17:53 14.69030 -90.28056 12006 ft 246 kts 332°
2026-05-07 17:53 14.70538 -90.28977 11520 ft 238 kts 331°
2026-05-07 17:54 14.71924 -90.29886 11120 ft 225 kts 329°
2026-05-07 17:54 14.73212 -90.30822 10850 ft 221 kts 326°
2026-05-07 17:54 14.74459 -90.31834 10425 ft 220 kts 322°
2026-05-07 17:54 14.75633 -90.32909 9999 ft 216 kts 319°
2026-05-07 17:55 14.76708 -90.34013 9965 ft 212 kts 316°
2026-05-07 17:55 14.77744 -90.35196 9960 ft 215 kts 313°
2026-05-07 17:55 14.78711 -90.36442 9951 ft 216 kts 310°
2026-05-07 17:55 14.79617 -90.37759 9982 ft 218 kts 306°
2026-05-07 17:56 14.80450 -90.39128 9974 ft 218 kts 303°
2026-05-07 17:56 14.81201 -90.40536 9969 ft 219 kts 300°
2026-05-07 17:56 14.81870 -90.42015 9759 ft 222 kts 293°
2026-05-07 17:56 14.81933 -90.43613 9480 ft 219 kts 256°
2026-05-07 17:57 14.81114 -90.44920 9215 ft 208 kts 219°
2026-05-07 17:57 14.79818 -90.45601 9023 ft 204 kts 200°
2026-05-07 17:57 14.78453 -90.46124 8907 ft 197 kts 198°
2026-05-07 17:57 14.77129 -90.46593 8653 ft 190 kts 197°
2026-05-07 17:58 14.75878 -90.47021 8394 ft 179 kts 197°
2026-05-07 17:58 14.74693 -90.47420 8126 ft 170 kts 197°
2026-05-07 17:58 14.73541 -90.47813 7889 ft 166 kts 197°
2026-05-07 17:58 14.72428 -90.48187 7642 ft 160 kts 196°
2026-05-07 17:59 14.71349 -90.48550 7415 ft 159 kts 197°
2026-05-07 17:59 14.70288 -90.48905 7187 ft 155 kts 197°
2026-05-07 17:59 14.69246 -90.49255 6954 ft 149 kts 197°
2026-05-07 17:59 14.68253 -90.49586 6748 ft 146 kts 198°
2026-05-07 18:00 14.67253 -90.49921 6550 ft 144 kts 198°
2026-05-07 18:00 14.66272 -90.50243 6336 ft 142 kts 197°
2026-05-07 18:00 14.65311 -90.50562 6143 ft 142 kts 197°
2026-05-07 18:00 14.64341 -90.50889 5946 ft 141 kts 198°
2026-05-07 18:01 14.63384 -90.51211 5757 ft 141 kts 197°
2026-05-07 18:01 14.62411 -90.51500 5612 ft 142 kts 193°
2026-05-07 18:01 14.61454 -90.51787 5400 ft 140 kts 195°
2026-05-07 18:01 14.60493 -90.52069 5202 ft 140 kts 197°
2026-05-07 18:02 14.58676 -90.52637 4916 ft 91 kts 197°
2026-05-07 18:02 14.58358 -90.52735 4903 ft 18 kts 196°
2026-05-07 18:02 14.58222 -90.52780 4896 ft 20 kts 198°
2026-05-07 18:03 14.58084 -90.52825 4893 ft 18 kts 198°
2026-05-07 18:03 14.57970 -90.52862 4893 ft 14 kts 198°
2026-05-07 18:03 14.57880 -90.52891 4894 ft 13 kts 197°
2026-05-07 18:03 14.57772 -90.52926 4894 ft 18 kts 197°
2026-05-07 18:04 14.57652 -90.52965 4898 ft 16 kts 197°
2026-05-07 18:04 14.57548 -90.52998 4899 ft 14 kts 197°
2026-05-07 18:04 14.57426 -90.53037 4900 ft 22 kts 197°
2026-05-07 18:04 14.57237 -90.53097 4897 ft 30 kts 197°
2026-05-07 18:05 14.57117 -90.53164 4892 ft 13 kts 228°
2026-05-07 18:05 14.57086 -90.53153 4892 ft 5 kts 60°
2026-05-07 18:05 14.57134 -90.53131 4893 ft 11 kts 18°
2026-05-07 18:05 14.57202 -90.53108 4896 ft 7 kts 18°
2026-05-07 18:06 14.57247 -90.53094 4898 ft 7 kts 18°
2026-05-07 18:06 14.57321 -90.53069 4899 ft 14 kts 18°
2026-05-07 18:06 14.57445 -90.53028 4900 ft 21 kts 18°
2026-05-07 18:06 14.57617 -90.52972 4899 ft 29 kts 17°
2026-05-07 18:07 14.57856 -90.52896 4894 ft 39 kts 18°
2026-05-07 18:07 14.58146 -90.52802 4894 ft 45 kts 18°
2026-05-07 18:07 14.58430 -90.52708 4907 ft 32 kts 18°
2026-05-07 18:07 14.58588 -90.52663 4913 ft 14 kts 14°
2026-05-07 18:08 14.58661 -90.52645 4916 ft 8 kts 17°
2026-05-07 18:08 14.58721 -90.52628 4917 ft 7 kts
2026-05-07 18:08 14.58762 -90.52655 4917 ft 9 kts 302°
2026-05-07 18:08 14.58793 -90.52736 4918 ft 14 kts 291°
2026-05-07 18:09 14.58865 -90.52821 4919 ft 15 kts 296°
2026-05-07 18:09 14.58886 -90.52882 4921 ft 0 kts 288°